Hourly Data Report for June 15, 2012

HALIFAX STANFIELD INT'L A
NOVA SCOTIA

44°52'48.060" N
63°30'00.050" W
145.40 m
8202250
71395
YHZ

Download Data

Hourly Data (June 2012)
Hourly Data Report for June 15, 2012
TIME
LST
Temp Definition
°C
Dew Point Definition
°C
Rel Hum Definition
%
Precip. Amount Definition
mm

Wind Dir Definition
10's deg

Wind Spd Definition
km/h
Visibility Definition
km
Stn Press Definition
kPa
Hmdx Definition


Wind Chill Definition


Weather Definition


00:00 12.6 11.6 94   36 20 24.1 100.57     Cloudy
01:00 12.7 11.8 94   36 19 19.3 100.53     Cloudy
02:00 13.0 12.0 94   35 20 19.3 100.54     Cloudy
03:00 13.1 12.3 95   35 17 19.3 100.51     Cloudy
04:00 13.2 12.4 95   36 20 19.3 100.48     Cloudy
05:00 12.9 11.7 92   35 22 24.1 100.52     Cloudy
06:00 12.8 11.8 94   36 19 24.1 100.56     Cloudy
07:00 13.6 12.2 91   1 22 24.1 100.58     Cloudy
08:00 14.4 12.4 88   36 20 24.1 100.59     Cloudy
09:00 15.3 12.6 84   1 15 24.1 100.63     Cloudy
10:00 17.3 13.4 78   36 26 24.1 100.62     Mostly Cloudy
11:00 18.0 13.6 75   36 26 24.1 100.62     Mostly Cloudy
12:00 17.3 13.5 78   36 22 24.1 100.68     Cloudy
13:00 16.1 13.0 82   1 32 24.1 100.74     Cloudy
14:00 16.7 12.6 77   2 24 24.1 100.74     Cloudy
15:00 15.6 11.8 78   36 30 24.1 100.74     Cloudy
16:00 15.4 11.4 77   1 30 24.1 100.74     Cloudy
17:00 14.5 10.8 78   1 24 24.1 100.76     Cloudy
18:00 13.4 10.5 83   1 22 24.1 100.77     Cloudy
19:00 12.7 10.6 87   1 20 19.3 100.79     Cloudy
20:00 12.5 10.8 89   1 17 9.7 100.82     Fog
21:00 12.1 10.9 92   36 17 9.7 100.88     Fog
22:00 12.1 11.0 93   1 9 9.7 100.91     Fog
23:00 12.4 10.9 91   3 11 12.9 100.92     Cloudy

Notes on Data Quality.

Legend

  • E = Estimated
  • M = Missing
  • NA = Not Available*
  • [empty] = Indicates an unobserved value
Date modified: